Weather History for Waskish, MN

Change the Weather History Date:

Tuesday, May 28, 2013

  Actual Average (KBDE) Record (KBDE)
Temperature  
Mean Temperature 60 °F -  
Max Temperature 69 °F 74 °F 94 °F (1986)
Min Temperature 50 °F 47 °F 27 °F (1947)
Degree Days  
Heating Degree Days 6    
Growing Degree Days 10 (Base 50)    
Moisture  
Dew Point 50 °F    
Average Humidity 67    
Maximum Humidity 82    
Minimum Humidity 56    
Precipitation  
Precipitation 0.00 in - - ()
Sea Level Pressure  
Sea Level Pressure 29.73 in    
Wind  
Wind Speed 5 mph (SE)    
Max Wind Speed 12 mph    
Max Gust Speed -    
Visibility 10 miles    
Events      
Averages and records for this station are not official NWS values.
T = Trace of Precipitation, MM = Missing Value Source: NWS Daily Summary

Daily Weather History Graph

Daily Weather History Graph

Search for Another Location

Airport:

Trip Planner

Search our weather history database for the weather conditions in past years. The results will help you decide how hot, cold, wet, or windy it might be!

Date:

Astronomy

May. 28, 2013 Rise Set
Actual Time 5:24 AM CDT 9:06 PM CDT
Civil Twilight 4:45 AM CDT 9:46 PM CDT
Nautical Twilight 3:52 AM CDT 10:39 PM CDT
Astronomical Twilight 2:36 AM CDT 11:56 PM CDT
Moon No Moon Rise 9:21 AM CDT (5/28)
Length of Visible Light 17h 00m
Length of Day
15h 41m
Waning Gibbous, 82% of the Moon is Illuminated
May 28
Waning Gibbous
May 31
Last Quarter
Jun 8
New
Jun 16
First Quarter
Jun 23
Full

Hourly Weather History & Observations

Time (CDT) Temp. Dew Point Humidity Pressure Visibility Wind Dir Wind Speed Gust Speed Precip Events Conditions
12:12 AM 59.0 °F 46.4 °F 63% 29.85 in 10.0 mi SE 3.5 mph - N/A   Overcast
12:32 AM 59.0 °F 46.4 °F 63% 29.84 in 10.0 mi SE 6.9 mph - N/A   Overcast
12:53 AM 59.0 °F 44.6 °F 59% 29.84 in 10.0 mi SE 8.1 mph - N/A   Overcast
1:12 AM 59.0 °F 44.6 °F 59% 29.83 in 10.0 mi SE 6.9 mph - N/A   Overcast
1:32 AM 57.2 °F 42.8 °F 59% 29.83 in 10.0 mi SE 4.6 mph - N/A   Mostly Cloudy
1:52 AM 55.4 °F 42.8 °F 63% 29.82 in 10.0 mi Calm Calm - N/A   Scattered Clouds
2:12 AM 55.4 °F 42.8 °F 63% 29.81 in 10.0 mi East 4.6 mph - N/A   Mostly Cloudy
2:32 AM 55.4 °F 42.8 °F 63% 29.80 in 10.0 mi East 3.5 mph - N/A   Mostly Cloudy
2:52 AM 55.4 °F 44.6 °F 67% 29.79 in 10.0 mi East 4.6 mph - N/A   Clear
3:12 AM 53.6 °F 42.8 °F 67% 29.80 in 10.0 mi Calm Calm - N/A   Clear
3:32 AM 51.8 °F 42.8 °F 71% 29.81 in 10.0 mi Calm Calm - N/A   Scattered Clouds
3:52 AM 50.0 °F 42.8 °F 76% 29.81 in 10.0 mi Calm Calm - N/A   Mostly Cloudy
4:12 AM 51.8 °F 44.6 °F 76% 29.80 in 10.0 mi Calm Calm - N/A   Overcast
4:32 AM 51.8 °F 44.6 °F 76% 29.79 in 10.0 mi East 4.6 mph - N/A   Overcast
4:52 AM 51.8 °F 44.6 °F 76% 29.79 in 10.0 mi Calm Calm - N/A   Mostly Cloudy
5:12 AM 51.8 °F 44.6 °F 76% 29.78 in 10.0 mi East 3.5 mph - N/A   Overcast
5:33 AM 53.6 °F 44.6 °F 72% 29.78 in 10.0 mi East 3.5 mph - N/A   Overcast
5:52 AM 51.8 °F 42.8 °F 71% 29.78 in 10.0 mi Calm Calm - N/A   Mostly Cloudy
6:12 AM 51.8 °F 44.6 °F 76% 29.78 in 10.0 mi ESE 4.6 mph - N/A   Mostly Cloudy
6:33 AM 53.6 °F 44.6 °F 72% 29.78 in 10.0 mi East 5.8 mph - N/A   Overcast
6:52 AM 53.6 °F 44.6 °F 72% 29.78 in 10.0 mi East 5.8 mph - N/A   Overcast
7:12 AM 53.6 °F 44.6 °F 72% 29.77 in 10.0 mi East 8.1 mph - N/A   Overcast
7:33 AM 53.6 °F 44.6 °F 72% 29.76 in 10.0 mi East 9.2 mph - N/A   Overcast
7:52 AM 55.4 °F 44.6 °F 67% 29.75 in 10.0 mi East 9.2 mph - N/A   Overcast
8:12 AM 55.4 °F 44.6 °F 67% 29.75 in 10.0 mi ESE 6.9 mph - N/A   Overcast
8:33 AM 55.4 °F 46.4 °F 72% 29.75 in 10.0 mi East 9.2 mph - N/A   Overcast
8:52 AM 57.2 °F 46.4 °F 67% 29.74 in 10.0 mi East 10.4 mph - N/A   Overcast
9:12 AM 60.8 °F 48.2 °F 63% 29.73 in 10.0 mi East 10.4 mph - N/A   Mostly Cloudy
9:33 AM 60.8 °F 50.0 °F 68% 29.75 in 10.0 mi ESE 9.2 mph - N/A   Mostly Cloudy
9:52 AM 60.8 °F 51.8 °F 72% 29.75 in 10.0 mi ESE 9.2 mph - N/A   Overcast
10:12 AM 62.6 °F 51.8 °F 68% 29.74 in 10.0 mi East 8.1 mph - N/A   Overcast
10:32 AM 62.6 °F 51.8 °F 68% 29.73 in 10.0 mi ESE 8.1 mph - N/A   Overcast
10:52 AM 64.4 °F 51.8 °F 64% 29.73 in 10.0 mi East 8.1 mph - N/A   Overcast
11:13 AM 64.4 °F 53.6 °F 68% 29.73 in 10.0 mi East 6.9 mph - N/A   Overcast
11:32 AM 64.4 °F 51.8 °F 64% 29.74 in 10.0 mi SE 4.6 mph - N/A   Overcast
11:52 AM 64.4 °F 53.6 °F 68% 29.73 in 10.0 mi SE 8.1 mph - N/A   Overcast
12:13 PM 66.2 °F 53.6 °F 64% 29.73 in 10.0 mi East 6.9 mph - N/A   Overcast
12:32 PM 66.2 °F 53.6 °F 64% 29.72 in 10.0 mi East 11.5 mph - N/A   Overcast
12:52 PM 66.2 °F 53.6 °F 64% 29.72 in 10.0 mi SE 8.1 mph - N/A   Overcast
1:13 PM 66.2 °F 53.6 °F 64% 29.72 in 10.0 mi ESE 11.5 mph - N/A   Overcast
1:32 PM 66.2 °F 53.6 °F 64% 29.72 in 10.0 mi SSE 5.8 mph - N/A   Overcast
1:52 PM 66.2 °F 53.6 °F 64% 29.72 in 10.0 mi SE 8.1 mph - N/A   Overcast
2:13 PM 66.2 °F 53.6 °F 64% 29.71 in 10.0 mi SE 10.4 mph - N/A   Overcast
2:32 PM 68.0 °F 53.6 °F 60% 29.70 in 10.0 mi SE 9.2 mph - N/A   Overcast
2:52 PM 66.2 °F 53.6 °F 64% 29.70 in 10.0 mi ESE 8.1 mph - N/A   Overcast
3:13 PM 69.8 °F 55.4 °F 60% 29.69 in 10.0 mi SSE 8.1 mph - N/A   Mostly Cloudy
3:32 PM 69.8 °F 53.6 °F 56% 29.68 in 10.0 mi SE 9.2 mph - N/A   Scattered Clouds
3:52 PM 69.8 °F 53.6 °F 56% 29.69 in 10.0 mi South 6.9 mph - N/A   Mostly Cloudy
4:12 PM 68.0 °F 53.6 °F 60% 29.69 in 10.0 mi SSE 4.6 mph - N/A   Overcast
4:32 PM 68.0 °F 53.6 °F 60% 29.69 in 10.0 mi SE 5.8 mph - N/A   Overcast
4:52 PM 69.8 °F 55.4 °F 60% 29.69 in 10.0 mi SE 5.8 mph - N/A   Mostly Cloudy
5:12 PM 69.8 °F 53.6 °F 56% 29.68 in 10.0 mi SSW 9.2 mph - N/A   Mostly Cloudy
5:32 PM 69.8 °F 53.6 °F 56% 29.68 in 10.0 mi South 6.9 mph - N/A   Overcast
5:53 PM 69.8 °F 53.6 °F 56% 29.68 in 10.0 mi South 5.8 mph - N/A   Overcast
6:12 PM 69.8 °F 53.6 °F 56% 29.68 in 10.0 mi SSE 8.1 mph - N/A   Overcast
6:32 PM 69.8 °F 55.4 °F 60% 29.68 in 10.0 mi SSE 8.1 mph - N/A   Mostly Cloudy
6:53 PM 69.8 °F 55.4 °F 60% 29.68 in 10.0 mi South 6.9 mph - N/A   Scattered Clouds
7:12 PM 68.0 °F 53.6 °F 60% 29.68 in 10.0 mi South 4.6 mph - N/A   Scattered Clouds
7:32 PM 66.2 °F 55.4 °F 68% 29.68 in 10.0 mi SSE 4.6 mph - N/A   Mostly Cloudy
7:52 PM 66.2 °F 55.4 °F 68% 29.68 in 10.0 mi South 3.5 mph - N/A   Overcast
8:12 PM 66.2 °F 53.6 °F 64% 29.68 in 10.0 mi SSE 5.8 mph - N/A   Overcast
8:32 PM 64.4 °F 53.6 °F 68% 29.68 in 10.0 mi SSE 3.5 mph - N/A   Overcast
8:52 PM 64.4 °F 53.6 °F 68% 29.68 in 10.0 mi SSE 3.5 mph - N/A   Overcast
9:12 PM 64.4 °F 53.6 °F 68% 29.67 in 10.0 mi SSE 5.8 mph - N/A   Overcast
9:32 PM 64.4 °F 53.6 °F 68% 29.68 in 10.0 mi SSE 4.6 mph - N/A   Overcast
9:52 PM 62.6 °F 53.6 °F 72% 29.68 in 10.0 mi South 4.6 mph - N/A   Overcast
10:12 PM 62.6 °F 53.6 °F 72% 29.68 in 10.0 mi SSE 5.8 mph - N/A   Mostly Cloudy
10:32 PM 60.8 °F 53.6 °F 77% 29.68 in 10.0 mi SSE 4.6 mph - N/A   Scattered Clouds
10:52 PM 60.8 °F 53.6 °F 77% 29.67 in 10.0 mi SE 3.5 mph - N/A   Clear
11:12 PM 59.0 °F 53.6 °F 82% 29.67 in 10.0 mi SSE 4.6 mph - N/A   Clear
11:33 PM 59.0 °F 53.6 °F 82% 29.68 in 10.0 mi SSE 4.6 mph - N/A   Clear
11:52 PM 59.0 °F 53.6 °F 82% 29.68 in 10.0 mi SSE 4.6 mph - N/A   Clear